www.pogodaiklimat.ru

Погода и климат >> Архив погоды >> Россия >> Ленинградская область >> Кингисепп


ПОГОДА в Кингисеппе

АРХИВ ПОГОДЫ в Кингисеппе

Время (UTC), дата Ветер
(напр.,м/с)
 
Видим.   Явления Облачность Т
(С)
Тd
(С)
f
(%)
Тe
(С)
Тes
(С)
Комфортность P
(гПа)
Po
(гПа)
Тmin
(С)
Tmax
(С)
R
(мм)
R24
(мм)
S
(см)
03 8.12 ЮВ 4
{10}
10 км {ливн. осадки} 10/10 450 м
[St]
-2.1 -4.6 83 -8 -8 1001.9 999.4 -2.3 0.4
06 8.12 ЮВ 4 4000 м слабый ливневой снег 10/10 360 м
[Cb cap]
-2.1 -4.6 83 -8 -8 1001.5 999.0 -2.3 0.4 2
09 8.12 ЮВ 5
{10}
10 км {ливн. осадки} 10/10 420 м
[St]
-2.1 -4.6 83 -9 -9 1000.6 998.1
12 8.12 ЮВ 4
{10}
10 км {ливн. осадки} 10/10 480 м
[St]
-1.8 -4.6 81 -8 -8 998.6 996.1
15 8.12 ЮВ 4
{12}
10 км 10/10 420 м
[St]
-1.7 -3.4 88 -8 -8 997.5 995.0 0.0
18 8.12 ЮВ 5
{10}
4000 м слабый ливневой снег 10/10 300 м
[Cb cap]
-1.6 -3.0 90 -8 -8 996.8 994.2 -1.6 0.3
21 8.12 ЮВ 4
{10}
4000 м слабый ливневой снег 10/10 420 м
[Cb cap]
-1.8 -2.9 92 -8 -8 996.9 994.4
00 9.12 ЮВ 4 10 км {ливн. осадки} 10/10 150 м
[St]
-1.3 -2.4 92 -7 -7 997.3 994.8
03 9.12 ЮВ 4 10 км 10/10 180 м
[St]
-1.0 -1.7 95 -7 -7 996.6 994.1 -1.8 2
06 9.12 ЮВ 4 10 км 10/10 180 м
[St]
-0.9 -2.2 91 -7 -7 996.6 994.1 -1.8 1 3
09 9.12 ЮВ 4 10 км 10/10 270 м
[St]
-0.2 -2.0 88 -6 -6 997.0 994.5
12 9.12 ЮВ 3 10 км 10/10 1410 м
[Sc]
+0.3 -2.0 85 -4 -4 996.8 994.3
15 9.12 ЮВ 4 10 км 9/4 1000 м
[Sc Ac trans]
+0.2 -2.2 84 -5 -5 996.9 994.4
18 9.12 ЮВ 3 10 км 10/10 360 м
[St]
+0.2 -1.2 90 -5 -5 997.1 994.6 +0.7
21 9.12 В 4 10 км 10/10 330 м
[St]
+0.3 -1.1 90 -5 -5 997.3 994.8
00 10.12 В 3 10 км 10/10 1440 м
[Sc]
+0.2 -1.2 90 -5 -5 997.2 994.7
03 10.12 В 3 10 км 10/10 300 м
[St]
0.0 -1.4 90 -5 -5 996.8 994.3 0.0
06 10.12 В 3 10 км 10/10 360 м
[St]
-0.1 -1.6 90 -5 -5 997.5 995.0 -0.1 4
09 10.12 В 4 10 км 10/10 360 м
[St]
-0.3 -1.8 90 -6 -6 998.3 995.8
12 10.12 В 3 4000 м слабый снег 10/10 400 м
[Frnb Ns]
-0.2 -1.4 92 -5 -5 999.2 996.7
15 10.12 В 2 4000 м слабый снег 10/10 270 м
[Frnb Ns]
-0.6 -1.2 96 -5 -5 1000.6 998.1 0.0
18 10.12 В 1 4000 м слабый снег 10/0
[As trans]
-1.2 -1.6 97 -4 -4 1002.3 999.8 0.0 0.2
21 10.12 В 1 4000 м слабый снег 10/0
[Ac As]
-1.1 -1.8 95 -3 -3 1003.7 1001.2
00 11.12 В 1 4000 м слабый снег 10/0
[As op]
-1.0 -1.7 95 -3 -3 1005.4 1002.9
03 11.12 СВ 1 4000 м слабый снег 10/10 360 м
[Frnb Ns]
-1.1 -1.8 95 -3 -3 1007.1 1004.6 -1.5 0.9
06 11.12 СВ 1 4000 м слабый снег 10/10 270 м
[Frnb Ns]
-0.9 -1.9 93 -3 -3 1009.0 1006.5 -1.5 0.9 4
09 11.12 СВ 1 4000 м слабый снег 10/10 240 м
[Frnb Ns]
-0.6 -1.2 96 -3 -3 1011.2 1008.7
12 11.12 С 2 10 км {снег} 10/10 300 м
[St]
-0.1 -1.2 92 -4 -4 1012.7 1010.2
15 11.12 С 1 4000 м слабый ливневой снег 10/10 480 м
[Cb cap]
-0.2 -0.8 96 -2 -2 1014.8 1012.3 0.5
18 11.12 С 2 10 км {ливн. осадки, снег} 10/10 270 м
[St]
-0.1 -0.4 98 -4 -4 1016.4 1013.9 +0.2 0.5
21 11.12 С 2 10 км {ливн. осадки} 10/10 270 м
[St]
0.0 -0.9 94 -4 -4 1018.7 1016.1
00 12.12 С 1 10 км {ливн. осадки} 10/10 240 м
[St]
-0.5 -1.1 96 -3 -3 1020.3 1017.7
03 12.12 С 2 10 км 10/10 240 м
[St]
-0.5 -1.1 96 -4 -4 1021.7 1019.1 -0.6 0.5
06 12.12 С 2 10 км 10/10 240 м
[St]
-0.6 -1.5 94 -4 -4 1023.9 1021.3 -0.6 0.0 4
09 12.12 СЗ 2 10 км 9/9 540 м
[St]
-1.2 -2.8 89 -5 -5 1025.2 1022.6
12 12.12 С 3 10 км {ливн. осадки} 10/10 870 м
[Sc]
-2.0 -4.1 86 -7 -7 1026.1 1023.5
15 12.12 СЗ 2 4000 м слабый ливневой снег 10/10 270 м
[Cb cap]
-2.2 -3.4 91 -6 -6 1027.1 1024.5 0.0
18 12.12 С 2 10 км {ливн. осадки} 10/10 330 м
[St]
-1.7 -3.1 90 -6 -6 1027.8 1025.2 -0.6 0.0
21 12.12 С 2 10 км 10/10 330 м
[St]
-1.5 -2.9 90 -5 -5 1028.6 1026.0
00 13.12 С 2 4000 м слабый ливневой снег 10/10 270 м
[Cb cap]
-0.9 -1.9 93 -5 -5 1029.2 1026.6
03 13.12 С 2 10 км {ливн. осадки} 10/10 270 м
[St]
-0.3 -1.5 92 -4 -4 1029.7 1027.1 -2.2 0.0
06 13.12 С 2 10 км {ливн. осадки} 10/10 300 м
[St]
+0.1 -1.3 90 -4 -4 1030.5 1027.9 -1.7 0.0 4
09 13.12 С 2 10 км 10/10 360 м
[St]
+0.1 -1.3 90 -4 -4 1031.3 1028.7
12 13.12 СВ 3 10 км 10/10 400 м
[St]
-0.2 -2.3 86 -5 -5 1031.3 1028.7
15 13.12 СВ 3 10 км 10/10 500 м
[St]
-1.8 -4.9 79 -7 -7 1032.1 1029.5
18 13.12 В 3 10 км 10/10 480 м
[St]
-2.2 -5.1 80 -7 -7 1032.3 1029.7 +0.1
21 13.12 СВ 2 10 км 10/10 480 м
[St]
-2.2 -5.1 80 -6 -6 1033.3 1030.7
00 14.12 В 2 10 км 10/10 450 м
[St]
-2.7 -5.3 82 -7 -7 1033.4 1030.8
03 14.12 СВ 2 10 км 10/10 330 м
[St]
-3.5 -5.6 85 -8 -8 1033.5 1030.9 -3.7
06 14.12 В 2 10 км 10/10 330 м
[St]
-3.9 -6.1 85 -8 -8 1033.9 1031.3 -4.0 4
09 14.12 В 1 10 км 9/8 1200 м
[Sc Ac trans]
-3.7 -6.2 83 -6 -6 1034.7 1032.1
12 14.12 В 1 10 км 4/3 1000 м
[Sc Ac trans Ci fib]
-4.6 -7.0 83 -7 -7 1034.8 1032.2
15 14.12 штиль 0 10 км 10/10 480 м
[St]
-4.0 -6.2 85 -5 -5 1035.1 1032.5
18 14.12 С 1 10 км 10/10 500 м
[St]
-3.9 -5.4 89 -6 -6 1035.7 1033.1 -3.4
21 14.12 В 2 10 км 10/10 300 м
[St]
-3.7 -5.2 89 -8 -8 1035.9 1033.3

 

Местоположение метеостанции Кингисепп (Ленинградская область, Россия): широта 59.37 долгота 28.60 высота над уровнем моря 20 м.

В архиве по умолчанию представлена погода в Кингисеппе за последнюю неделю. Архивные данные за месяц целиком и за предыдущие месяцы, начиная с января 2011 года, Вы можете получить, выбрав интересующий диапазон дат из раскрывающегося списка и нажав кнопку "Ввод!".


*Определитесь, кто Вы:
робот инопланетянин человек

Внимание! Время в таблицах - всемирное. Для получения местного времени необходимо прибавить поправку, которая в Кингисеппе равна 3 ч.

Смотрите также архив погоды в соседних городах и на ближайших метеорологических станциях:

Погода в Narva (Эстония) (27 км)
Погода в Сланцах (Ленинградская область, Россия) (41 км)
Погода в Волосово (Ленинградская область, Россия) (51 км)
Погода в Сосновом Бору (Ленинградская область, Россия) (59 км)
Погода в Шепелево (Ленинградская область, Россия) (66 км)
Погода в J?hvi (Эстония) (69 км)
Погода в Гдове (Псковская область, Россия) (84 км)
Погода в Белогорке (Ленинградская область, Россия) (87 км)
Погода в Ломоносове (город Санкт-Петербург, Россия) (90 км)
Погода в Кронштадте (город Санкт-Петербург, Россия) (94 км)

Пояснения к столбцам:

Ветер - указаны скорость ветра в м/с - средняя за 10 мин, порывы в срок и между сроками (в фигурных скобках) и направление, откуда дует ветер: С - северный, СВ - северо-восточный, В - восточный, ЮВ - юго-восточный, Ю - южный, ЮЗ - юго-западный, З - западный, СЗ - северо-западный.
Видимость - горизонтальная дальность видимости в метрах или километрах. При видимости от 1 до 10 км при отсутствии осадков обычно наблюдается дымка, при ухудшении видимости до 1 км и менее - туман. В сухую погоду видимость может ухудшаться дымом, пылью или мглою.
Явления - указаны атмосферные явления, наблюдавшиеся в срок или в последний час перед сроком; фигурными скобками обозначены явления, наблюдавшиеся между сроками (за 1-3 часа до срока); квадратными скобками обозначены град или гололедные отложения с указанием их диаметра в мм.
Облачность - указаны через наклонную черту общая и нижняя облачность в баллах и высота нижней границы облаков в метрах; квадратными скобками обозначены формы облаков: Ci - перистые, Cs - перисто-слоистые, Cc - перисто-кучевые, Ac - высококучевые, As - высокослоистые, Sc - слоисто-кучевые, Ns - слоисто-дождевые, Cu - кучевые, Cb - кучево-дождевые. Подробнее классификацию облаков см. в Атласе облаков (PDF).
T - Температура воздуха - температура, измеренная на высоте 2 м над землей.
Td - Температура точки росы - температура, при понижении до которой содержащийся в воздухе водяной пар достигнет насыщения.
f - Относительная влажность воздуха - влажноcть воздуха, измеренная на высоте 2 м над землей.
Te - Эффективная температура - температура, которую ощущает одетый по сезону человек в тени. Характеристика душности погоды. При расчете учитывается влияние влажности воздуха и скорости ветра на теплоощущения человека.
Tes - Эффективная температура на солнце - температура, которую ощущает человек, с поправкой на солнечный нагрев. Характеристика знойности погоды. Зависит от высоты солнца над горизонтом, облачности и скорости ветра. Ночью, в пасмурную погоду, а также при ветре 12 м/с и более поправка равна нулю.
P - Атмосферное давление - приведенное к уровню моря атмосферное давление.
Po - Атмосферное давление - измеренное на уровне метеостанции атмосферное давление.
Tmin - Минимальная температура - минимум температуры воздуха на высоте 2 м над землей.
Tmax - Максимальная температура - максимум температуры воздуха на высоте 2 м над землей.
R - Количество осадков - Количество выпавших осадков за период времени, мм. При наведении курсора мыши на число - период времени, за который выпало указанное количество осадков.
R24 - Количество осадков - Количество выпавших осадков за 24 часа, мм.
S - Снежный покров - Высота снежного покрова, см. При наведении курсора мыши на число - состояние снежного покрова и степень покрытия местности в баллах.